www.pogodaiklimat.ru

Погода и климат >> Архив погоды >> Словения >> Новая Горица


ПОГОДА в Новой Горице

  • Прогноз погоды в Новой Горице
  • Монитор погоды в Новой Горице

АРХИВ ПОГОДЫ в Новой Горице

Время (UTC), дата Ветер
(напр.,м/с)
 
Видим.   Явления Облачность Т
(С)
Тd
(С)
f
(%)
Тe
(С)
Тes
(С)
Комфортность P
(гПа)
Po
(гПа)
Тmin
(С)
Tmax
(С)
R
(мм)
R24
(мм)
S
(см)
07 9.07 В 2
{6}
>70 км 9/9
[]
+22.6 +14.2 59 +26 +27 жарко 1012.7 1006.2
08 9.07 В 3
{6}
>70 км 10/10 2000 м
[]
+23.6 +13.8 54 +26 +26 жарко 1012.9 1006.4
09 9.07 В 4
{7}
>70 км 1/0 2000 м
[]
+25.0 +14.2 51 +27 +37 жарко 1012.7 1006.2
10 9.07 В 4
{8}
>70 км 5/5
[]
+24.8 +15.1 55 +28 +34 жарко 1012.2 1005.7
11 9.07 В 4
{8}
>70 км 8/8 2000 м
[]
+25.0 +15.3 55 +28 +30 жарко 1012.3 1005.8
12 9.07 В 4
{7}
>70 км 9/9 1500 м
[]
+25.2 +15.8 56 +28 +30 жарко 1012.2 1005.8
13 9.07 В 5
{8}
>70 км 3/3 1500 м
[]
+25.5 +15.8 55 +29 +34 душно 1011.4 1005.0
14 9.07 В 5
{10}
>70 км 8/8 1500 м
[]
+25.2 +15.5 55 +28 +30 жарко 1011.8 1005.4
15 9.07 В 5
{9}
>70 км 9/9 1500 м
[]
+23.8 +15.3 59 +27 +27 жарко 1011.8 1005.3
16 9.07 В 4
{7}
>70 км 9/9
[]
+23.8 +15.0 58 +27 +27 жарко 1010.6 1004.2
17 9.07 В 3
{6}
>70 км 9/9
[]
+23.8 +15.0 58 +27 +27 жарко 1010.7 1004.3
18 9.07 В 3
{6}
>70 км 9/9 2000 м
[]
+23.1 +14.7 59 +27 +27 душно 1011.1 1004.7 +26.0
19 9.07 В 3
{6}
>70 км 9/9
[]
+21.5 +15.6 69 +25 +25 комфорт 1011.5 1005.0
20 9.07 В 3
{6}
60 км слаб. морось 9/9
[]
+19.5 +16.5 83 +22 +22 комфорт 1011.5 1004.9
21 9.07 СВ 3
{5}
>70 км 10/10
[]
+20.5 +15.9 75 +24 +24 комфорт 1012.0 1005.4
22 9.07 СВ 2
{5}
60 км 9/9
[]
+20.2 +15.6 75 +23 +23 комфорт 1012.1 1005.5
23 9.07 СВ 3
{5}
>70 км 9/9
[]
+20.9 +14.8 68 +24 +24 комфорт 1011.9 1005.4
00 10.07 СВ 4
{8}
>70 км 8/8
[]
+20.8 +14.0 65 +24 +24 комфорт 1012.0 1005.4
01 10.07 В 4
{8}
>70 км 10/10
[]
+21.1 +13.8 63 +24 +24 комфорт 1011.6 1005.0
02 10.07 В 7
{14}
70 км 4/4
[]
+21.0 +12.7 59 +23 +23 комфорт 1011.7 1005.1
03 10.07 В 6
{10}
>70 км 10/10
[]
+20.8 +12.2 58 +23 +23 комфорт 1011.8 1005.3
04 10.07 В 6
{11}
>70 км 9/9
[]
+20.8 +11.2 54 +23 +23 комфорт 1011.8 1005.3
05 10.07 В 6
{11}
>70 км 9/9
[]
+21.3 +10.5 50 +23 +23 комфорт 1011.8 1005.3
06 10.07 В 6 50 км 1/0
[Ac trans]
+22.1 +11.5 51 +24 +26 комфорт 1011.6 1005.2 +19.4
07 10.07 В 7
{13}
>70 км ясно +22.3 +11.7 51 +25 +27 комфорт 1011.9 1005.4
08 10.07 В 5
{13}
>70 км ясно +23.3 +10.7 45 +25 +31 комфорт 1012.1 1005.7
09 10.07 В 6
{12}
55 км ясно +23.9 +10.6 43 +25 +31 комфорт 1012.5 1006.1
10 10.07 В 5
{11}
>70 км ясно +24.6 +9.7 39 +25 +35 комфорт 1012.6 1006.1
11 10.07 В 6
{10}
55 км ясно +25.0 +10.5 40 +26 +33 жарко 1012.7 1006.3
12 10.07 ЮВ 7
{11}
>70 км ясно +25.5 +10.5 39 +26 +31 жарко 1012.5 1006.1
13 10.07 В 6
{12}
>70 км ясно +25.6 +9.8 37 +26 +32 жарко 1012.3 1005.9
14 10.07 В 6
{11}
>70 км ясно +26.3 +10.5 37 +27 +32 жарко 1012.0 1005.6
15 10.07 В 5
{13}
>70 км ясно +26.0 +10.2 37 +27 +31 жарко 1012.0 1005.6
16 10.07 В 6
{11}
>70 км ясно +25.1 +9.8 38 +26 +28 жарко 1012.1 1005.7
17 10.07 В 5
{10}
>70 км ясно +24.6 +10.1 40 +26 +27 жарко 1012.4 1005.9
18 10.07 В 4
{7}
>70 км ясно +23.4 +10.1 43 +25 +25 комфорт 1013.0 1006.5 +26.4
19 10.07 В 4
{9}
>70 км ясно +22.3 +9.5 44 +24 +24 комфорт 1013.4 1006.9
20 10.07 В 3
{8}
55 км ясно +21.3 +9.5 47 +23 +23 комфорт 1014.3 1007.8
21 10.07 В 4
{8}
70 км ясно +20.9 +9.2 47 +23 +23 комфорт 1014.9 1008.4
22 10.07 В 4
{7}
65 км ясно +20.5 +8.8 47 +22 +22 комфорт 1015.1 1008.5
23 10.07 В 3
{7}
60 км 1/1 2000 м
[]
+19.9 +8.9 49 +21 +21 комфорт 1015.2 1008.6
00 11.07 В 3
{8}
60 км 4/4 2000 м
[]
+19.4 +9.0 51 +21 +21 комфорт 1015.5 1008.9
01 11.07 В 4
{8}
>70 км 1/1 2000 м
[]
+19.7 +8.1 47 +21 +21 комфорт 1015.4 1008.8
02 11.07 В 3
{6}
>70 км ясно +18.8 +7.9 49 +19 +19 1015.1 1008.4
03 11.07 СВ 2
{4}
>70 км ясно +18.2 +7.3 49 +19 +19 1015.1 1008.5
04 11.07 З 1
{3}
>70 км ясно +15.5 +9.6 68 +16 +16 1015.7 1009.0
05 11.07 Ю 1
{2}
35 км 1/1 1500 м
[]
+16.1 +11.7 75 +17 +18 1015.8 1009.1
06 11.07 В 1 50 км 4/4 1000 м
[Sc]
+19.1 +9.9 55 +21 +24 комфорт 1015.6 1009.0 +15.0
07 11.07 СВ 1
{2}
60 км 6/6 2000 м
[]
+21.5 +8.8 44 +23 +26 комфорт 1015.7 1009.1
08 11.07 В 2
{3}
>70 км 5/5 1500 м
[]
+23.4 +8.3 38 +25 +30 комфорт 1015.3 1008.8
09 11.07 Ю 1
{3}
>70 км 9/9 1500 м
[]
+23.5 +9.1 40 +24 +26 комфорт 1015.3 1008.8
10 11.07 СЗ 1
{3}
>70 км 10/10 2000 м
[]
+25.1 +9.0 36 +26 +26 жарко 1014.8 1008.4
11 11.07 З 3
{5}
>70 км 5/5
[]
+24.9 +9.6 38 +26 +33 жарко 1014.4 1008.0
12 11.07 З 3
{6}
>70 км 5/5 1500 м
[]
+25.3 +11.1 41 +27 +34 жарко 1014.0 1007.6
13 11.07 З 4
{6}
>70 км 1/1
[]
+25.5 +11.3 41 +27 +36 жарко 1013.5 1007.1
14 11.07 З 3
{5}
60 км 3/3
[]
+24.8 +11.4 43 +26 +33 жарко 1013.2 1006.8
15 11.07 З 3
{6}
>70 км 9/0
[]
+24.6 +10.8 42 +26 +27 жарко 1013.1 1006.7
16 11.07 З 3
{5}
60 км 9/9
[]
+24.8 +11.7 44 +26 +27 жарко 1012.9 1006.4
17 11.07 З 2
{4}
70 км 9/9
[]
+23.8 +11.2 45 +25 +25 комфорт 1013.0 1006.5
18 11.07 ЮЗ 2
{3}
60 км 10/0
[]
+22.1 +13.2 57 +25 +25 комфорт 1013.1 1006.6 +26.2
19 11.07 З 1
{2}
60 км 10/10
[]
+21.1 +12.5 58 +23 +23 комфорт 1013.6 1007.0
20 11.07 В 2
{3}
40 км 10/10
[]
+19.1 +15.4 79 +21 +21 комфорт 1013.4 1006.8
21 11.07 З 1
{3}
35 км слаб. морось 9/0
[]
+18.6 +15.5 82 +21 +21 комфорт 1013.7 1007.1
22 11.07 ЮВ 1
{2}
30 км 9/9
[]
+18.4 +15.8 85 +20 +20 1013.6 1007.0
23 11.07 В 1
{1}
30 км 9/9
[]
+18.1 +16.1 88 +19 +19 1014.0 1007.4
00 12.07 В 1
{2}
30 км 9/0 2000 м
[]
+17.8 +15.8 88 +19 +19 1013.8 1007.2
01 12.07 В 1
{2}
22 км 1/1 2000 м
[]
+16.8 +15.3 91 +18 +18 1013.3 1006.7
02 12.07 ЮЗ 1
{2}
11 км 1/1 2000 м
[]
+15.8 +14.8 94 +16 +16 1013.2 1006.6
03 12.07 Ю 1
{2}
7000 м ясно +14.9 +14.1 95 +15 +15 1013.1 1006.4
04 12.07 СВ 1
{2}
16 км 4/4
[]
+14.7 +13.9 95 +15 +15 1013.3 1006.6
05 12.07 В 1
{3}
27 км 6/6
[]
+16.2 +14.4 89 +17 +18 1013.5 1006.9
06 12.07 В 1
{3}
50 км 6/0
[Ac trans]
+17.3 +14.9 86 +18 +21 1013.3 1006.7 +14.6
07 12.07 В 1
{3}
55 км ясно +22.2 +15.1 64 +26 +34 душно 1012.9 1006.4
08 12.07 З 1
{3}
65 км 8/8
[]
+24.3 +14.1 53 +27 +29 жарко 1012.9 1006.4
09 12.07 Ю 1
{3}
>70 км 4/0
[]
+26.2 +13.0 44 +28 +39 жарко 1012.3 1005.9
10 12.07
{04}
н/о 1005.5
11 12.07 ЮЗ 3
{6}
>70 км ясно +27.3 +14.7 46 +30 +45 душно 1011.7 1005.3
12 12.07 Ю 4
{7}
>70 км ясно +27.7 +15.0 46 +30 +42 жарко 1011.2 1004.8
13 12.07
{08}
н/о 1004.6
14 12.07 ЮЗ 4
{8}
>70 км 4/4
[]
+27.5 +15.2 47 +30 +35 жарко 1010.7 1004.3
15 12.07 Ю 5
{7}
50 км 6/0
[]
+25.9 +16.2 55 +29 +31 душно 1010.9 1004.5
16 12.07 ЮВ 2
{5}
45 км 9/9
[]
+26.0 +13.5 46 +28 +28 жарко 1010.9 1004.5
17 12.07 штиль 0
{4}
30 км 9/9
[]
+24.8 +16.8 61 +28 +29 жарко 1010.9 1004.5
18 12.07 ЮВ 2
{2}
35 км 1/1 1500 м
[]
+24.3 +16.8 63 +28 +28 душно 1010.4 1004.0
19 12.07 З 1
{2}
30 км ясно +21.9 +16.2 70 +26 +26 душно 1011.1 1004.6
20 12.07 В 2
{3}
26 км 4/4 1000 м
[]
+20.2 +15.8 76 +24 +24 комфорт 1011.7 1005.1
21 12.07 В 2
{3}
22 км 4/0
[]
+18.9 +16.0 83 +21 +21 комфорт 1011.7 1005.1
22 12.07 В 1
{3}
26 км 9/9
[]
+18.4 +15.5 83 +20 +20 1011.6 1005.0
23 12.07 ЮВ 1
{2}
25 км 10/10
[]
+18.1 +15.5 85 +19 +19 1011.7 1005.1
00 13.07 ЮВ 1
{2}
20 км 5/0
[]
+17.1 +15.4 90 +18 +18 1011.0 1004.4
01 13.07 СВ 1
{2}
21 км 9/9
[]
+17.0 +15.3 90 +18 +18 1011.1 1004.5
02 13.07 В 1
{2}
30 км 9/9
[]
+17.2 +15.5 90 +18 +18 1010.8 1004.2
03 13.07 В 2
{3}
45 км 9/0
[]
+17.2 +14.8 86 +18 +18 1010.1 1003.6
04 13.07 В 1
{3}
55 км 9/9
[]
+17.5 +14.8 84 +19 +19 1009.6 1003.0
05 13.07 СЗ 1
{2}
>70 км 6/6
[]
+18.6 +15.3 81 +21 +21 комфорт 1010.1 1003.5
06 13.07 ЮВ 1
{2}
>70 км 8/8 1320 м
[]
+19.9 +14.9 73 +23 +24 комфорт 1010.3 1003.7 +16.9
07 13.07 В 2
{3}
>70 км 9/9
[]
+20.9 +15.0 69 +25 +25 комфорт 1010.2 1003.7
08 13.07 Ю 1
{2}
н/о 1/1
[]
+24.4 +14.2 53 +27 +39 жарко 1010.2 1003.8
09 13.07 В 2
{3}
>70 км ясно +26.3 +14.1 47 +29 +43 жарко 1010.2 1003.8
10 13.07 ЮВ 1
{4}
>70 км 3/3
[]
+27.2 +14.9 47 +30 +44 душно 1010.1 1003.7
11 13.07 ЮЗ 4
{7}
>70 км 9/9
[]
+25.5 +14.6 51 +28 +29 жарко 1009.8 1003.4
12 13.07 СЗ 3
{14}
10 км дождь 10/10 1500 м
[]
+18.3 +14.6 79 +19 +19 1011.0 1004.4
13 13.07 В 2
{7}
55 км слаб. дождь 9/9
[]
+17.1 +14.7 86 +17 +19 1010.8 1004.2
14 13.07 ЮЗ 2
{5}
13 км сильн. дождь 10/10 2000 м
[]
+18.5 +17.0 91 +20 +20 1011.5 1005.0
15 13.07 В 3
{6}
40 км слаб. дождь 9/9 870 м
[]
+18.7 +15.6 82 +20 +21 1011.4 1004.8
16 13.07 В 1
{3}
60 км слаб. дождь 8/8
[]
+18.3 +15.9 86 +20 +21 1011.1 1004.5
17 13.07 ЮЗ 1
{2}
15 км 5/5
[]
+19.3 +17.1 87 +22 +23 комфорт 1011.7 1005.1
18 13.07 Ю 1
{2}
50 км 3/0
[]
+19.1 +16.9 87 +22 +22 комфорт 1011.9 1005.3 +27.7
19 13.07 В 1
{2}
22 км 1/1
[]
+17.5 +16.2 92 +19 +19 1012.3 1005.7
20 13.07 В 1
{2}
7000 м ясно +16.5 +15.7 95 +17 +17 1012.8 1006.2
21 13.07 В 2
{3}
14 км ясно +16.0 +15.4 96 +16 +16 1013.1 1006.5
22 13.07 В 1
{2}
10 км ясно +15.4 +14.8 96 +16 +16 1013.1 1006.5
23 13.07 Ю 1
{2}
6000 м ясно +14.7 +14.1 96 +15 +15 1013.3 1006.6
00 14.07 СВ 1
{2}
10 км ясно +14.2 +13.7 97 +14 +14 1013.1 1006.4
01 14.07 В 1
{3}
12 км ясно +13.8 +13.3 97 +14 +14 1012.9 1006.2
02 14.07 В 1
{3}
23 км ясно +13.2 +12.7 97 +13 +13 1012.4 1005.6
03 14.07 Ю 1
{2}
11 км ясно +12.8 +12.3 97 +13 +13 1012.5 1005.7
04 14.07 В 2
{3}
19 км ясно +12.5 +12.0 97 +11 +12 1012.4 1005.7
05 14.07 В 1
{3}
45 км ясно +14.1 +12.8 92 +14 +16 1012.5 1005.8
06 14.07 В 1
{2}
>70 км ясно +16.8 +13.7 82 +18 +22 1012.5 1005.9 +12.4
07 14.07 ЮЗ 1
{2}
>70 км ясно +19.2 +13.6 70 +22 +30 комфорт 1012.8 1006.2
08 14.07 Ю 1
{2}
>70 км ясно +22.6 +14.4 60 +26 +39 жарко 1012.6 1006.1
09 14.07 ЮЗ 1
{2}
>70 км ясно +25.2 +13.7 49 +27 +45 жарко 1012.6 1006.2
10 14.07 З 3
{5}
>70 км 3/3
[]
+25.8 +11.6 41 +27 +37 жарко 1012.4 1005.9
11 14.07 ЮЗ 3
{6}
>70 км ясно +27.0 +12.6 41 +29 +44 жарко 1012.1 1005.7
12 14.07 СЗ 3
{6}
>70 км ясно +27.0 +11.9 39 +28 +43 жарко 1011.5 1005.1
13 14.07 З 3
{5}
>70 км 8/8
[]
+26.2 +12.3 42 +28 +30 жарко 1011.4 1005.0
14 14.07 В 2
{5}
>70 км 9/9 2000 м
[]
+25.7 +12.9 45 +28 +29 жарко 1011.3 1004.8
15 14.07 С 4
{6}
65 км 9/0 2000 м
[]
+23.1 +13.9 56 +27 +27 душно 1011.9 1005.4
16 14.07 С 1
{3}
>70 км 9/9
[]
+21.8 +14.0 61 +25 +25 комфорт 1011.9 1005.4
17 14.07 З 1
{2}
>70 км 9/9
[]
+22.1 +13.5 58 +25 +25 комфорт 1011.5 1005.0
18 14.07 В 2
{4}
>70 км 9/0
[]
+21.5 +15.1 67 +25 +25 комфорт 1011.2 1004.7 +28.0
19 14.07 Ю 1
{1}
>70 км 10/10
[]
+20.5 +16.1 76 +25 +25 комфорт 1011.6 1005.0
20 14.07 Ю 1
{1}
65 км 9/9
[]
+18.8 +16.6 87 +21 +21 комфорт 1011.8 1005.3
21 14.07 В 1
{2}
>70 км 8/0
[]
+17.6 +15.8 89 +19 +19 1012.2 1005.6
22 14.07 В 2
{3}
60 км 10/10
[]
+17.2 +15.7 91 +18 +18 1012.3 1005.6
23 14.07 ЮВ 1
{2}
>70 км 9/9
[]
+17.0 +15.3 90 +18 +18 1011.8 1005.2
00 15.07 ЮЗ 1
{2}
>70 км 6/0
[]
+15.8 +14.5 92 +16 +16 1011.8 1005.2
01 15.07 В 3
{6}
>70 км 10/10
[]
+19.9 +12.2 61 +22 +22 комфорт 1011.4 1004.8
02 15.07 В 3
{7}
>70 км 10/10
[]
+20.8 +11.2 54 +23 +23 комфорт 1011.0 1004.5
03 15.07 В 3
{5}
>70 км 5/0
[]
+20.2 +10.6 54 +22 +22 комфорт 1011.3 1004.7
04 15.07 В 2
{5}
>70 км ясно +19.5 +11.3 59 +21 +21 комфорт 1011.2 1004.6
05 15.07 В 3
{8}
>70 км 4/4
[]
+20.9 +11.8 56 +23 +24 комфорт 1011.0 1004.5
06 15.07 В 5
{10}
50 км 8 баллов +21.9 +11.6 52 +24 +24 комфорт 1011.0 1004.5 +15.6
07 15.07 В 6
{12}
>70 км ясно +22.9 +11.3 48 +25 +28 комфорт 1011.1 1004.7
08 15.07 В 6
{11}
>70 км ясно +24.1 +11.4 45 +26 +30 жарко 1011.3 1004.9
09 15.07 >70 км 1/0
[]
+25.0 +11.6 43 1011.4 1005.0
10 15.07 н/о
11 15.07 ЮВ 5
{9}
>70 км 3/3
[]
+26.2 +11.5 40 +27 +34 жарко 1011.3 1004.9
12 15.07 В 4
{8}
>70 км ясно +27.2 +12.4 40 +29 +41 жарко 1011.0 1004.6
13 15.07 В 4
{13}
>70 км ясно +27.4 +11.4 37 +28 +39 жарко 1010.8 1004.4
14 15.07 ЮВ 5
{11}
>70 км ясно +27.5 +10.7 35 +28 +34 жарко 1010.9 1004.5
15 15.07 В 6
{10}
>70 км ясно +27.4 +10.2 34 +28 +31 жарко 1010.8 1004.4
16 15.07 В 3
{9}
>70 км ясно +26.8 +11.3 38 +28 +31 жарко 1010.9 1004.5
17 15.07 В 2
{5}
30 км 5/5
[]
+25.3 +11.1 41 +27 +27 жарко 1011.4 1005.0
18 15.07 В 2
{5}
26 км 9/0
[]
+24.6 +11.2 43 +26 +26 жарко 1012.0 1005.5
19 15.07 ЮЗ 2
{4}
>70 км 3/3
[]
+20.6 +14.3 67 +24 +24 комфорт 1012.6 1006.1
20 15.07 ЮЗ 2
{3}
70 км 3/3
[]
+19.5 +14.7 74 +22 +22 комфорт 1013.2 1006.6
21 15.07 Ю 1
{2}
55 км 3/0
[]
+17.8 +14.5 81 +19 +19 1013.5 1006.9
22 15.07 В 1
{2}
40 км ясно +16.7 +14.0 84 +18 +18 1013.8 1007.2
23 15.07 В 1
{1}
40 км 4/4
[]
+15.9 +14.1 89 +17 +17 1013.9 1007.2
00 16.07 В 1
{2}
26 км ясно +14.8 +13.3 91 +15 +15 1013.9 1007.2
01 16.07 В 1
{2}
23 км ясно +13.9 +12.8 93 +14 +14 1013.8 1007.1
02 16.07 В 1
{3}
30 км ясно +13.5 +12.4 93 +14 +14 1013.8 1007.1
03 16.07 В 1
{2}
27 км ясно +12.9 +12.0 94 +13 +13 1013.7 1007.0
04 16.07 В 1
{2}
25 км ясно +12.7 +11.8 94 +13 +13 1013.7 1007.0
05 16.07 В 2
{4}
45 км ясно +15.1 +12.4 84 +15 +16 1013.9 1007.2

 

Местоположение метеостанции Новая Горица (Словения): широта 45.90 долгота 13.63 высота над уровнем моря 56 м.

В архиве по умолчанию представлена погода в Новой Горице за последнюю неделю. Архивные данные за месяц целиком и за предыдущие месяцы, начиная с января 2011 года, Вы можете получить, выбрав интересующий диапазон дат из раскрывающегося списка и нажав кнопку "Ввод!".


*Определитесь, кто Вы:
робот инопланетянин человек

Внимание! Время в таблицах - всемирное. Для получения местного времени необходимо прибавить поправку, которая равна 1 ч.

Смотрите также архив погоды в соседних городах и на ближайших метеорологических станциях:

Погода в Ронки-деи-Леджонари (Италия) (15 км)
Погода на Войско (Словения) (25 км)
Погода в Триесте (Италия) (29 км)
Погода в Портороже (Словения) (43 км)
Погода на Вогеле (Словения) (44 км)
Погода в Постойнской (Словения) (46 км)
Погода на Базе ВВС Риволто (Италия) (47 км)
Погода на Кредарике (Словения) (56 км)
Погода в Катарине (Словения) (61 км)
Погода в Конкордия-Саджиттарии (Италия) (63 км)

Пояснения к столбцам:

Ветер - указаны скорость ветра в м/с - средняя за 10 мин, порывы в срок и между сроками (в фигурных скобках) и направление, откуда дует ветер: С - северный, СВ - северо-восточный, В - восточный, ЮВ - юго-восточный, Ю - южный, ЮЗ - юго-западный, З - западный, СЗ - северо-западный.
Видимость - горизонтальная дальность видимости в метрах или километрах. При видимости от 1 до 10 км при отсутствии осадков обычно наблюдается дымка, при ухудшении видимости до 1 км и менее - туман. В сухую погоду видимость может ухудшаться дымом, пылью или мглою.
Явления - указаны атмосферные явления, наблюдавшиеся в срок или в последний час перед сроком; фигурными скобками обозначены явления, наблюдавшиеся между сроками (за 1-3 часа до срока); квадратными скобками обозначены град или гололедные отложения с указанием их диаметра в мм.
Облачность - указаны через наклонную черту общая и нижняя облачность в баллах и высота нижней границы облаков в метрах; квадратными скобками обозначены формы облаков: Ci - перистые, Cs - перисто-слоистые, Cc - перисто-кучевые, Ac - высококучевые, As - высокослоистые, Sc - слоисто-кучевые, Ns - слоисто-дождевые, Cu - кучевые, Cb - кучево-дождевые. Подробнее классификацию облаков см. в Атласе облаков (PDF).
T - Температура воздуха - температура, измеренная на высоте 2 м над землей.
Td - Температура точки росы - температура, при понижении до которой содержащийся в воздухе водяной пар достигнет насыщения.
f - Относительная влажность воздуха - влажноcть воздуха, измеренная на высоте 2 м над землей.
Te - Эффективная температура - температура, которую ощущает одетый по сезону человек в тени. Характеристика душности погоды. При расчете учитывается влияние влажности воздуха и скорости ветра на теплоощущения человека.
Tes - Эффективная температура на солнце - температура, которую ощущает человек, с поправкой на солнечный нагрев. Характеристика знойности погоды. Зависит от высоты солнца над горизонтом, облачности и скорости ветра. Ночью, в пасмурную погоду, а также при ветре 12 м/с и более поправка равна нулю.
P - Атмосферное давление - приведенное к уровню моря атмосферное давление.
Po - Атмосферное давление - измеренное на уровне метеостанции атмосферное давление.
Tmin - Минимальная температура - минимум температуры воздуха на высоте 2 м над землей.
Tmax - Максимальная температура - максимум температуры воздуха на высоте 2 м над землей.
R - Количество осадков - Количество выпавших осадков за период времени, мм. При наведении курсора мыши на число - период времени, за который выпало указанное количество осадков.
R24 - Количество осадков - Количество выпавших осадков за 24 часа, мм.
S - Снежный покров - Высота снежного покрова, см. При наведении курсора мыши на число - состояние снежного покрова и степень покрытия местности в баллах.